Hourly Data Report for September 17, 2017

All times are specified in Local Standard Time (LST). Add 1 hour to adjust for Daylight Saving Time where and when it is observed.

PORT ALBERNI (AUT)
BRITISH COLUMBIA

49°18'59.700" N
124°55'36.600" W
76.20 m
1036B06
71475
WQC

Related Data

No related data is available for this station

Download Data

Hourly Data (September 2017)
Hourly Data Report for September 17, 2017
Temp Definition
°C
Dew Point Temp Definition
°C
Rel Hum Definition
%
Wind Dir Definition
10's deg

Wind Spd Definition
km/h
Visibility Definition
km
Stn Press Definition
kPa
Hmdx Definition


Wind Chill Definition


Weather Definition


TIME
00:00 10.5 7.1 79 33 3   100.20     LegendNANA
01:00 9.9 6.8 81 30 3   100.15     LegendNANA
02:00 8.9 6.3 84 24 4   100.13     LegendNANA
03:00 9.2 6.8 85 36 6   100.09     LegendNANA
04:00 9.2 7.3 88 12 2   100.01     LegendNANA
05:00 9.7 7.8 88 12 7   99.95     LegendNANA
06:00 11.0 8.3 83 8 8   99.94     LegendNANA
07:00 11.3 8.7 84 28 3   99.91     LegendNANA
08:00 12.8 8.7 76 10 10   99.82     LegendNANA
09:00 13.6 9.6 77 9 13   99.73     LegendNANA
10:00 13.3 10.5 83 12 12   99.65     LegendNANA
11:00 12.5 11.5 93 10 12   99.60     LegendNANA
12:00 12.9 11.7 93 9 18   99.53     LegendNANA
13:00 14.1 13.1 93 10 17   99.44     LegendNANA
14:00 14.7 13.1 90 8 11   99.45     LegendNANA
15:00 15.9 9.3 65 24 12   99.48     LegendNANA
16:00 16.4 6.4 52 25 7   99.52     LegendNANA
17:00 16.1 5.6 50 24 9   99.58     LegendNANA
18:00 13.6 5.0 56 22 6   99.62     LegendNANA
19:00 9.9 7.5 85 0 1   99.69     LegendNANA
20:00 9.6 7.7 88 4 2   99.78     LegendNANA
21:00 8.0 6.6 91 12 5   99.79     LegendNANA
22:00 8.1 7.1 93 11 2   99.83     LegendNANA
23:00 8.6 7.7 94 16 3   99.86     LegendNANA

Notes on Data Quality.

Legend

  • E = Estimated
  • M = Missing
  • NA = Not Available
  • ‡ = Partner data that is not subject to review by the National Climate Archives
Date modified: